(°C)
10°
(°C)
SSO
S
S
S
S
S
S
(km/h)
20-34
21-34
21-36
22-38
23-40
24-42
25-43
(mm)
0
0
0
0
0
0
0
(%)
0
0
0
0
0
0
1

Elevación del sol

/ -10.2°
sun-icon
UV 1
07:00
17:32
Gibosa creciente (132°)
16:56
01:10

METAR a 55.6°N 37.27°E (UUWW)

Hora Condiciones Temperatura/
Punto de condensación
Viento Visibilidad Tiempo Nubes Presión Cambiar Bruto
VFR 8°C / 4°C 190º 12kt. Wind Shear present on Runway 24. >10km - Clouds and Visibility OK 1012 No Significant change UUWW 160230Z 19006MPS CAVOK 08/04 Q1012 WS R24 R24/000070 NOSIG
VFR 8°C / 4°C 190º 12kt. Wind Shear present on Runway 24. >10km - Clouds and Visibility OK 1012 No Significant change UUWW 160200Z 19006MPS CAVOK 08/04 Q1012 WS R24 R24/000070 NOSIG
VFR 8°C / 4°C 190º 12kt. Wind Shear present on Runway 24. >10km - Clouds and Visibility OK 1012 No Significant change UUWW 160130Z 19006MPS CAVOK 08/04 Q1012 WS R24 R24/000070 NOSIG
VFR 8°C / 4°C 200º 12kt >10km - Clouds and Visibility OK 1012 No Significant change UUWW 160100Z 20006MPS CAVOK 08/04 Q1012 R24/000070 NOSIG
VFR 8°C / 4°C 200º 10kt >10km - Clouds and Visibility OK 1013 No Significant change UUWW 160030Z 20005MPS CAVOK 08/04 Q1013 R24/000070 NOSIG
VFR 8°C / 4°C 200º 10kt >10km - Clouds and Visibility OK 1013 No Significant change UUWW 160000Z 20005MPS CAVOK 08/04 Q1013 R24/000070 NOSIG
VFR 8°C / 3°C 200º 10kt >10km - Clouds and Visibility OK 1013 No Significant change UUWW 152330Z 20005MPS CAVOK 08/03 Q1013 R24/000070 NOSIG
MVFR 7°C / 3°C 200º 12kt >10km - Broken Clouds 2200ft 1013 No Significant change UUWW 152300Z 20006MPS 9999 BKN022 07/03 Q1013 R24/000070 NOSIG
MVFR 7°C / 3°C 200º 10kt. Wind Shear present on Runway 24. >10km - Broken Clouds 2200ft 1013 No Significant change UUWW 152230Z 20005MPS 9999 BKN022 07/03 Q1013 WS R24 R24/000070 NOSIG
MVFR 7°C / 3°C 200º 12kt. Wind Shear present on Runway 24. >10km - Broken Clouds 2100ft 1013 No Significant change UUWW 152200Z 20006MPS 9999 BKN021 07/03 Q1013 WS R24 R24/000070 NOSIG
VFR 7°C / 2°C 200º 10kt >10km - Few Clouds 4300ft 1013 No Significant change UUWW 152130Z 20005MPS 9999 FEW043 07/02 Q1013 R24/000070 NOSIG
MVFR 7°C / 2°C 210º 12kt >10km - Broken Clouds 2800ft 1014 No Significant change UUWW 152100Z 21006MPS 9999 BKN028 07/02 Q1014 R24/000070 NOSIG
VFR 7°C / 2°C 200º 10kt >10km - Broken Clouds 4400ft 1014 No Significant change UUWW 152030Z 20005MPS 9999 BKN044 07/02 Q1014 R24/000070 NOSIG
VFR 7°C / 2°C 200º 10kt >10km - Broken Clouds 4500ft 1014 No Significant change UUWW 152000Z 20005MPS 9999 BKN045 07/02 Q1014 R24/000070 NOSIG
VFR 7°C / 2°C 200º 12kt. Wind Shear present on Runway 24. >10km - Clouds and Visibility OK 1014 No Significant change UUWW 151930Z 20006MPS CAVOK 07/02 Q1014 WS R24 R24/000070 NOSIG
VFR 7°C / 2°C 200º 12kt. Wind Shear present on Runway 24. >10km - Broken Clouds 3600ft 1014 No Significant change UUWW 151900Z 20006MPS 9999 BKN036 07/02 Q1014 WS R24 R24/000070 NOSIG
VFR 7°C / 2°C 200º 10kt >10km - Broken Clouds 3400ft 1014 No Significant change UUWW 151830Z 20005MPS 9999 BKN034 07/02 Q1014 R24/000070 NOSIG
VFR 7°C / 2°C 190º 10kt >10km - Broken Clouds 3300ft 1015 No Significant change UUWW 151800Z 19005MPS 9999 BKN033 07/02 Q1015 R24/000070 NOSIG
VFR 7°C / 2°C 200º 12kt >10km - Broken Clouds 3200ft 1015 No Significant change UUWW 151730Z 20006MPS 9999 BKN032 07/02 Q1015 R24/000070 NOSIG
VFR 7°C / 2°C 200º 10kt. Wind Shear present on Runway 24. >10km - Broken Clouds 3500ft 1015 No Significant change UUWW 151700Z 20005MPS 9999 BKN035 07/02 Q1015 WS R24 R24/000070 NOSIG
VFR 7°C / 2°C 190º 10kt >10km - Broken Clouds 3700ft 1015 No Significant change UUWW 151630Z 19005MPS 9999 BKN037 07/02 Q1015 R24/000070 NOSIG
VFR 7°C / 2°C 190º 8kt >10km - Clouds and Visibility OK 1015 No Significant change UUWW 151600Z 19004MPS CAVOK 07/02 Q1015 R24/000070 NOSIG
VFR 6°C / 2°C 190º 8kt >10km - Clouds and Visibility OK 1015 No Significant change UUWW 151530Z 19004MPS CAVOK 06/02 Q1015 R24/000070 NOSIG
VFR 6°C / 2°C 200º 8kt >10km - Clouds and Visibility OK 1015 No Significant change UUWW 151500Z 20004MPS CAVOK 06/02 Q1015 R24/000070 NOSIG

VFR

8°C / 4°C

[Más]
Viento 190º 12kt. Wind Shear present on Runway 24.
Visibilidad >10km
Tiempo -
Nubes Clouds and Visibility OK
Presión 1012
Cambiar No Significant change
Bruto UUWW 160230Z 19006MPS CAVOK 08/04 Q1012 WS R24 R24/000070 NOSIG

VFR

8°C / 4°C

[Más]
Viento 190º 12kt. Wind Shear present on Runway 24.
Visibilidad >10km
Tiempo -
Nubes Clouds and Visibility OK
Presión 1012
Cambiar No Significant change
Bruto UUWW 160200Z 19006MPS CAVOK 08/04 Q1012 WS R24 R24/000070 NOSIG

VFR

8°C / 4°C

[Más]
Viento 190º 12kt. Wind Shear present on Runway 24.
Visibilidad >10km
Tiempo -
Nubes Clouds and Visibility OK
Presión 1012
Cambiar No Significant change
Bruto UUWW 160130Z 19006MPS CAVOK 08/04 Q1012 WS R24 R24/000070 NOSIG

VFR

8°C / 4°C

[Más]
Viento 200º 12kt
Visibilidad >10km
Tiempo -
Nubes Clouds and Visibility OK
Presión 1012
Cambiar No Significant change
Bruto UUWW 160100Z 20006MPS CAVOK 08/04 Q1012 R24/000070 NOSIG

VFR

8°C / 4°C

[Más]
Viento 200º 10kt
Visibilidad >10km
Tiempo -
Nubes Clouds and Visibility OK
Presión 1013
Cambiar No Significant change
Bruto UUWW 160030Z 20005MPS CAVOK 08/04 Q1013 R24/000070 NOSIG

VFR

8°C / 4°C

[Más]
Viento 200º 10kt
Visibilidad >10km
Tiempo -
Nubes Clouds and Visibility OK
Presión 1013
Cambiar No Significant change
Bruto UUWW 160000Z 20005MPS CAVOK 08/04 Q1013 R24/000070 NOSIG

VFR

8°C / 3°C

[Más]
Viento 200º 10kt
Visibilidad >10km
Tiempo -
Nubes Clouds and Visibility OK
Presión 1013
Cambiar No Significant change
Bruto UUWW 152330Z 20005MPS CAVOK 08/03 Q1013 R24/000070 NOSIG

MVFR

7°C / 3°C

[Más]
Viento 200º 12kt
Visibilidad >10km
Tiempo -
Nubes Broken Clouds 2200ft
Presión 1013
Cambiar No Significant change
Bruto UUWW 152300Z 20006MPS 9999 BKN022 07/03 Q1013 R24/000070 NOSIG

MVFR

7°C / 3°C

[Más]
Viento 200º 10kt. Wind Shear present on Runway 24.
Visibilidad >10km
Tiempo -
Nubes Broken Clouds 2200ft
Presión 1013
Cambiar No Significant change
Bruto UUWW 152230Z 20005MPS 9999 BKN022 07/03 Q1013 WS R24 R24/000070 NOSIG

MVFR

7°C / 3°C

[Más]
Viento 200º 12kt. Wind Shear present on Runway 24.
Visibilidad >10km
Tiempo -
Nubes Broken Clouds 2100ft
Presión 1013
Cambiar No Significant change
Bruto UUWW 152200Z 20006MPS 9999 BKN021 07/03 Q1013 WS R24 R24/000070 NOSIG

VFR

7°C / 2°C

[Más]
Viento 200º 10kt
Visibilidad >10km
Tiempo -
Nubes Few Clouds 4300ft
Presión 1013
Cambiar No Significant change
Bruto UUWW 152130Z 20005MPS 9999 FEW043 07/02 Q1013 R24/000070 NOSIG

MVFR

7°C / 2°C

[Más]
Viento 210º 12kt
Visibilidad >10km
Tiempo -
Nubes Broken Clouds 2800ft
Presión 1014
Cambiar No Significant change
Bruto UUWW 152100Z 21006MPS 9999 BKN028 07/02 Q1014 R24/000070 NOSIG

VFR

7°C / 2°C

[Más]
Viento 200º 10kt
Visibilidad >10km
Tiempo -
Nubes Broken Clouds 4400ft
Presión 1014
Cambiar No Significant change
Bruto UUWW 152030Z 20005MPS 9999 BKN044 07/02 Q1014 R24/000070 NOSIG

VFR

7°C / 2°C

[Más]
Viento 200º 10kt
Visibilidad >10km
Tiempo -
Nubes Broken Clouds 4500ft
Presión 1014
Cambiar No Significant change
Bruto UUWW 152000Z 20005MPS 9999 BKN045 07/02 Q1014 R24/000070 NOSIG

VFR

7°C / 2°C

[Más]
Viento 200º 12kt. Wind Shear present on Runway 24.
Visibilidad >10km
Tiempo -
Nubes Clouds and Visibility OK
Presión 1014
Cambiar No Significant change
Bruto UUWW 151930Z 20006MPS CAVOK 07/02 Q1014 WS R24 R24/000070 NOSIG

VFR

7°C / 2°C

[Más]
Viento 200º 12kt. Wind Shear present on Runway 24.
Visibilidad >10km
Tiempo -
Nubes Broken Clouds 3600ft
Presión 1014
Cambiar No Significant change
Bruto UUWW 151900Z 20006MPS 9999 BKN036 07/02 Q1014 WS R24 R24/000070 NOSIG

VFR

7°C / 2°C

[Más]
Viento 200º 10kt
Visibilidad >10km
Tiempo -
Nubes Broken Clouds 3400ft
Presión 1014
Cambiar No Significant change
Bruto UUWW 151830Z 20005MPS 9999 BKN034 07/02 Q1014 R24/000070 NOSIG

VFR

7°C / 2°C

[Más]
Viento 190º 10kt
Visibilidad >10km
Tiempo -
Nubes Broken Clouds 3300ft
Presión 1015
Cambiar No Significant change
Bruto UUWW 151800Z 19005MPS 9999 BKN033 07/02 Q1015 R24/000070 NOSIG

VFR

7°C / 2°C

[Más]
Viento 200º 12kt
Visibilidad >10km
Tiempo -
Nubes Broken Clouds 3200ft
Presión 1015
Cambiar No Significant change
Bruto UUWW 151730Z 20006MPS 9999 BKN032 07/02 Q1015 R24/000070 NOSIG

VFR

7°C / 2°C

[Más]
Viento 200º 10kt. Wind Shear present on Runway 24.
Visibilidad >10km
Tiempo -
Nubes Broken Clouds 3500ft
Presión 1015
Cambiar No Significant change
Bruto UUWW 151700Z 20005MPS 9999 BKN035 07/02 Q1015 WS R24 R24/000070 NOSIG

VFR

7°C / 2°C

[Más]
Viento 190º 10kt
Visibilidad >10km
Tiempo -
Nubes Broken Clouds 3700ft
Presión 1015
Cambiar No Significant change
Bruto UUWW 151630Z 19005MPS 9999 BKN037 07/02 Q1015 R24/000070 NOSIG

VFR

7°C / 2°C

[Más]
Viento 190º 8kt
Visibilidad >10km
Tiempo -
Nubes Clouds and Visibility OK
Presión 1015
Cambiar No Significant change
Bruto UUWW 151600Z 19004MPS CAVOK 07/02 Q1015 R24/000070 NOSIG

VFR

6°C / 2°C

[Más]
Viento 190º 8kt
Visibilidad >10km
Tiempo -
Nubes Clouds and Visibility OK
Presión 1015
Cambiar No Significant change
Bruto UUWW 151530Z 19004MPS CAVOK 06/02 Q1015 R24/000070 NOSIG

VFR

6°C / 2°C

[Más]
Viento 200º 8kt
Visibilidad >10km
Tiempo -
Nubes Clouds and Visibility OK
Presión 1015
Cambiar No Significant change
Bruto UUWW 151500Z 20004MPS CAVOK 06/02 Q1015 R24/000070 NOSIG

TAF a 55.6°N 37.27°E (UUWW)

From till


Maximum Temperature 9ºC on . Minimum Temperature 2ºC on .
From till Wind 210º 10kt. Visibility 6000m. Few Clouds 400ft. Overcast 1600ft.
Temporarly from till Light Showers Rain . Scattered Clouds 2500ft.
Temporarly from till Wind 230º 16kt. Gust 29kt. Light Showers Rain . Scattered Clouds 2500ft.
Temporarly from till Light Showers Rain . Scattered Clouds 2500ft.

Bruto: TAF UUWW 160152Z 1603/1703 21005MPS 6000 FEW004 OVC016 TX09/1612Z TN02/1703Z TEMPO 1603/1607 -SHRA SCT025CB TEMPO 1607/1616 23008G15MPS -SHRA SCT025CB TEMPO 1616/1620 -SHRA SCT025CB

Imágenes actuales de satélite y lluvia para 55.6°N 37.27°E

El marcador de lugar se coloca en 55.6°N 37.27°E. [Más]

La imagen de satélite en tiempo real se aprovecha de la combinación de bandas de la luz visible y de la luz infrarrojo. Como se puede detectar cambios de temperaturas atreves de la banda infrarrojo, la imagen no está escura de noche. No obstante, la niebla y las nubes bajas son apenas visibles en las imágenes infrarrojo como las diferencias de temperaturas entre el suelo y la niebla son muy pequeñas. Por eso son casi invisibles durante la noche. Las imágenes de satélite del Meteosat (Europa) son actualizados en tiempo real cada 5 minutos. Las imágenes del GOES-16/GOES-17 (América del Norte y América del Sur) y Himawari (Asia) son actualizados cada 10 minutos.

Copyright 2021 EUMETSAT / meteoblue. / Copyright 2021 meteoblue

Radar y precipitación nowcast para 55.6°N 37.27°E

llovizna
Leve
Moderado
Fuerte
Muy fuerte
Granizo

El marcador de lugar se coloca en 55.6°N 37.27°E. Esta animación muestra lo radar de precipitaciones hasta la última hora, así como la 1h previsión. Las lloviznas o las nevadas ligeras pueden ser invisibles para el radar. La intensidad de la precipitación está codificada por colores, que van del azul claro al naranja.